(170695) = 2004 BB16

Discovered at Palomar on 2004-01-18 by NEAT.

Orbit

Orbit type: Main Belt

Note: WebGL enabled browser required.

epoch2022-01-21.0
epoch JD2459600.5
perihelion date2020-06-27.75895
perihelion JD2459028.25895
argument of perihelion (°)328.18731
ascending node (°)87.37716
inclination (°)6.39800
eccentricity0.2383100
perihelion distance (AU)2.0045916
Tisserand w.r.t. Jupiter3.3
ΔV w.r.t. Earth (km/sec)9.1
semimajor axis (AU)2.6317683
mean anomaly (°)132.10260
mean daily motion (°/day)0.23085130
aphelion distance (AU)3.259
period (years)4.27
P-vector [x]0.56219885
P-vector [y]0.78020927
P-vector [z]0.27423703
Q-vector [x]-0.81947598
Q-vector [y]0.48092709
Q-vector [z]0.31171824
absolute magnitude16.14
phase slope0.15
uncertainty0
referenceMPO 694710
observations used606
oppositions14
arc length (days)7197
first opposition used2002
last opposition used2022
residual rms (arc-secs)0.73
perturbers coarse indicatorM-v
perturbers precise indicator003Ek
first observation date used2002-08-19.0
last observation date used2022-05-03.0
computer namePan
JD of orbit computation2456847.707910
perihelion JD uncertainty (days)5.2313E-05
argument of perihelion uncertainty (°)4.8590E-05
ascending node uncertainty (°)4.6987E-05
inclination uncertainty (°)5.2607E-06
eccentricity uncertainty 6.8582E-08
perihelion distance uncertainty (AU)1.9048E-07
Minimum Orbit Intersection Distances (in AU)
for orbit epoch: 2458200.5, reference: MPO407302
Mercury1.69995
Venus1.29081
Earth1.02616
Mars0.50458
Jupiter2.109
Saturn6.58813
Uranus15.1814
Neptune26.9931

Observations

629 total observations over interval: 2002 08 19.30147 – 2022 06 01.334383
These data are available for download (format description).

Date (UT) J2000 RA J2000 Dec Magn Location Ref
2002 08 19.30147 21 54 50.06 -22 13 08.8 19.4   644 – Palomar Mountain/NEAT MPS 98838
2002 08 19.32908 21 54 48.48 -22 13 19.5 19.5   644 – Palomar Mountain/NEAT MPS 98838
2002 08 19.35452 21 54 47.03 -22 13 29.4 19.2   644 – Palomar Mountain/NEAT MPS 98838
2002 08 30.33036 21 44 44.10 -23 15 36.9 19.6   644 – Palomar Mountain/NEAT MPS 98838
2002 08 30.35357 21 44 42.81 -23 15 43.6 19.2   644 – Palomar Mountain/NEAT MPS 98838
2002 08 30.38212 21 44 41.24 -23 15 51.4 20.0   644 – Palomar Mountain/NEAT MPS 98838
2002 09 15.18279 21 32 38.67 -24 07 58.5 19.5   644 – Palomar Mountain/NEAT MPS 98838
2002 09 15.20383 21 32 37.90 -24 08 00.9 19.5   644 – Palomar Mountain/NEAT MPS 98838
2002 09 15.22474 21 32 37.05 -24 08 03.4 18.6   644 – Palomar Mountain/NEAT MPS 98838
2003 12 28.39927 10 16 53.36 +17 19 29.2 19.7   704 – Lincoln Laboratory ETS, New Mexico MPS 98838
2003 12 28.43828 10 16 53.40 +17 19 40.3 20.2   704 – Lincoln Laboratory ETS, New Mexico MPS 98838
2003 12 28.45153 10 16 53.48 +17 19 45.2 20.5   704 – Lincoln Laboratory ETS, New Mexico MPS 98838
2004 01 18.38940 10 11 05.02 +19 21 12.2 19.1   644 – Palomar Mountain/NEAT MPS 97108
2004 01 18.41089 10 11 04.19 +19 21 21.4 19.0   644 – Palomar Mountain/NEAT MPS 97108
2004 01 18.43251 10 11 03.40 +19 21 30.6 18.9   644 – Palomar Mountain/NEAT MPS 97108
2004 01 19.40587 10 10 27.78 +19 28 26.8 18.9 V 703 – Catalina Sky Survey MPS 97108
2004 01 19.41727 10 10 27.28 +19 28 30.3 19.3 V 703 – Catalina Sky Survey MPS 97108
2004 01 19.42871 10 10 26.83 +19 28 37.4 19.3 V 703 – Catalina Sky Survey MPS 97108
2004 01 19.44007 10 10 26.45 +19 28 42.3 19.5 V 703 – Catalina Sky Survey MPS 97108
2004 01 23.32984 10 07 49.38 +19 56 59.3 19.1   704 – Lincoln Laboratory ETS, New Mexico MPS 97108
2004 01 23.34251 10 07 48.76 +19 57 05.0 19.7   704 – Lincoln Laboratory ETS, New Mexico MPS 97108
2004 01 23.35543 10 07 48.23 +19 57 11.4 19.7   704 – Lincoln Laboratory ETS, New Mexico MPS 97108
2004 01 23.36821 10 07 47.67 +19 57 16.6 19.5   704 – Lincoln Laboratory ETS, New Mexico MPS 97108
2004 01 23.38089 10 07 47.05 +19 57 22.4 19.8   704 – Lincoln Laboratory ETS, New Mexico MPS 97108
2004 01 28.26146 10 03 59.32 +20 33 35.3 19.6 V 703 – Catalina Sky Survey MPS 97891
2004 01 28.27211 10 03 58.75 +20 33 40.5 19.4 V 703 – Catalina Sky Survey MPS 97891
2004 01 28.28278 10 03 58.25 +20 33 45.1 19.8 V 703 – Catalina Sky Survey MPS 97891
2004 01 28.29347 10 03 57.64 +20 33 49.2 19.0 V 703 – Catalina Sky Survey MPS 97891
2004 02 10.38660 09 51 55.28 +22 06 42.0 19.0   644 – Palomar Mountain/NEAT MPS 98838
2004 02 10.40757 09 51 54.03 +22 06 50.6 18.6   644 – Palomar Mountain/NEAT MPS 98838
2004 02 10.42854 09 51 52.75 +22 06 58.8 18.7   644 – Palomar Mountain/NEAT MPS 98838
2004 02 11.28409 09 51 03.05 +22 12 29.7 19.1   644 – Palomar Mountain/NEAT MPS 98838
2004 02 11.28640 09 51 02.87 +22 12 30.4 18.8   644 – Palomar Mountain/NEAT MPS 98838
2004 02 11.36272 09 50 58.27 +22 12 59.9 18.9   644 – Palomar Mountain/NEAT MPS 98838
2004 02 11.36498 09 50 58.11 +22 13 00.6 18.8   644 – Palomar Mountain/NEAT MPS 98839
2004 02 11.42928 09 50 54.25 +22 13 25.0 18.9   644 – Palomar Mountain/NEAT MPS 98839
2004 02 11.43159 09 50 54.07 +22 13 25.7 18.8   644 – Palomar Mountain/NEAT MPS 98839
2004 02 13.29998 09 49 04.84 +22 25 05.9 19.8 V 691 – Steward Observatory, Kitt Peak-Spacewatch MPS 98839
2004 02 13.32801 09 49 03.13 +22 25 16.3 19.6 V 691 – Steward Observatory, Kitt Peak-Spacewatch MPS 98839
2004 02 13.35442 09 49 01.53 +22 25 25.7 19.5 V 691 – Steward Observatory, Kitt Peak-Spacewatch MPS 98839
2004 02 15.27174 09 47 09.58 +22 36 51.7 19.0   704 – Lincoln Laboratory ETS, New Mexico MPS 98839
2004 02 15.28333 09 47 08.90 +22 36 56.0 19.1   704 – Lincoln Laboratory ETS, New Mexico MPS 98839
2004 02 15.29499 09 47 08.16 +22 37 00.1 19.4   704 – Lincoln Laboratory ETS, New Mexico MPS 98839
2004 02 15.31829 09 47 06.76 +22 37 07.3 19.6   704 – Lincoln Laboratory ETS, New Mexico MPS 98839
2004 02 19.29588 09 43 17.78 +22 58 55.8 19.3   704 – Lincoln Laboratory ETS, New Mexico MPS 98839
2004 02 19.30953 09 43 16.94 +22 58 59.8 19.6   704 – Lincoln Laboratory ETS, New Mexico MPS 98839
2004 02 19.32533 09 43 16.04 +22 59 04.6 20.0   704 – Lincoln Laboratory ETS, New Mexico MPS 98839
2004 02 19.33919 09 43 15.23 +22 59 09.2 19.9   704 – Lincoln Laboratory ETS, New Mexico MPS 98839
2004 02 19.35172 09 43 14.45 +22 59 12.7 19.6   704 – Lincoln Laboratory ETS, New Mexico MPS 98839
2004 03 09.13388 09 28 24.91 +24 01 07.6 19.1   644 – Palomar Mountain/NEAT MPS 100879
2004 03 09.17735 09 28 23.31 +24 01 11.5 19.4   644 – Palomar Mountain/NEAT MPS 100879
2004 03 09.19750 09 28 22.58 +24 01 13.4 19.2   644 – Palomar Mountain/NEAT MPS 100879
2005 05 11.18133 14 53 28.49 -10 09 21.7 20.8 V 691 – Steward Observatory, Kitt Peak-Spacewatch MPS 133999
2005 05 11.19910 14 53 27.51 -10 09 19.1 20.8 V 691 – Steward Observatory, Kitt Peak-Spacewatch MPS 133999
2005 05 11.21697 14 53 26.57 -10 09 16.3 20.7 V 691 – Steward Observatory, Kitt Peak-Spacewatch MPS 133999
2007 10 11.37265 06 43 14.13 +20 46 02.2 19.1   704 – Lincoln Laboratory ETS, New Mexico MPS 220486
2007 10 11.38383 06 43 14.86 +20 46 06.0 19.5   704 – Lincoln Laboratory ETS, New Mexico MPS 220486
2007 10 11.39502 06 43 15.99 +20 46 03.5 19.6   704 – Lincoln Laboratory ETS, New Mexico MPS 220486
2007 10 11.40626 06 43 16.63 +20 46 07.0 19.9   704 – Lincoln Laboratory ETS, New Mexico MPS 220486
2007 11 05.37797 07 08 00.78 +21 17 40.0 19.2   704 – Lincoln Laboratory ETS, New Mexico MPS 224833
2007 11 05.39017 07 08 01.21 +21 17 42.0 19.4   704 – Lincoln Laboratory ETS, New Mexico MPS 224833
2007 11 05.40235 07 08 01.65 +21 17 42.7 19.3   704 – Lincoln Laboratory ETS, New Mexico MPS 224833
2007 11 05.41468 07 08 02.09 +21 17 44.3 19.3   704 – Lincoln Laboratory ETS, New Mexico MPS 224833
2007 11 05.42687 07 08 02.49 +21 17 45.7 19.4   704 – Lincoln Laboratory ETS, New Mexico MPS 224833
2007 11 17.40994 07 12 53.06 +21 50 21.1 19.2 V G96 – Mt. Lemmon Survey MPS 228266
2007 11 17.41567 07 12 53.10 +21 50 22.3 19.1 V G96 – Mt. Lemmon Survey MPS 228266
2007 11 17.42145 07 12 53.17 +21 50 23.5 19.2 V G96 – Mt. Lemmon Survey MPS 228266
2007 11 17.42722 07 12 53.20 +21 50 24.6 19.1 V G96 – Mt. Lemmon Survey MPS 228266
2007 12 03.38065 07 10 57.87 +22 58 01.1 18.8 V 691 – Steward Observatory, Kitt Peak-Spacewatch MPS 230878
2007 12 03.39575 07 10 57.43 +22 58 05.9 18.7 V 691 – Steward Observatory, Kitt Peak-Spacewatch MPS 230878
2007 12 03.41084 07 10 57.03 +22 58 10.1 18.8 V 691 – Steward Observatory, Kitt Peak-Spacewatch MPS 230878
2007 12 06.34375 07 09 32.89 +23 13 19.3 18.5   704 – Lincoln Laboratory ETS, New Mexico MPS 230878
2007 12 06.35655 07 09 32.47 +23 13 23.6 18.7   704 – Lincoln Laboratory ETS, New Mexico MPS 230878
2007 12 06.36942 07 09 31.99 +23 13 28.1 18.6   704 – Lincoln Laboratory ETS, New Mexico MPS 230878
2007 12 06.38222 07 09 31.58 +23 13 32.1 18.6   704 – Lincoln Laboratory ETS, New Mexico MPS 230878
2007 12 06.39501 07 09 31.11 +23 13 36.2 18.6   704 – Lincoln Laboratory ETS, New Mexico MPS 230878
2007 12 10.32039 07 07 09.73 +23 34 55.0 18.7   704 – Lincoln Laboratory ETS, New Mexico MPS 231272
2007 12 10.33332 07 07 09.16 +23 34 59.0 18.7   704 – Lincoln Laboratory ETS, New Mexico MPS 231272
2007 12 10.34622 07 07 08.60 +23 35 03.9 18.9   704 – Lincoln Laboratory ETS, New Mexico MPS 231272
2007 12 10.35922 07 07 08.07 +23 35 07.8 18.8   704 – Lincoln Laboratory ETS, New Mexico MPS 231272
2007 12 10.37212 07 07 07.51 +23 35 12.7 19.0   704 – Lincoln Laboratory ETS, New Mexico MPS 231272
2007 12 14.31876 07 04 15.01 +23 57 28.8 18.7   704 – Lincoln Laboratory ETS, New Mexico MPS 231272
2007 12 14.33175 07 04 14.35 +23 57 32.7 18.7   704 – Lincoln Laboratory ETS, New Mexico MPS 231272
2007 12 14.34474 07 04 13.69 +23 57 37.5 18.7   704 – Lincoln Laboratory ETS, New Mexico MPS 231272
2007 12 14.37071 07 04 12.40 +23 57 46.0 18.8   704 – Lincoln Laboratory ETS, New Mexico MPS 231272
2008 01 05.25705 06 42 53.48 +25 58 23.1 17.9   704 – Lincoln Laboratory ETS, New Mexico MPS 234077
2008 01 05.26991 06 42 52.59 +25 58 27.3 18.5   704 – Lincoln Laboratory ETS, New Mexico MPS 234077
